Location: Grand-Auvern�
(47.5918°N, 1.3307°W)
Time: 10:13:41
(UTC+00:00)

Daily predictions for brighter satellites

Satellite Brightness Start Highest point End
(mag) Time Altitude Azimuth Time Altitude Azimuth Time Altitude Azimuth
Meteor 1-31 Rocket 3.7 16:41:19 10° S 16:45:03 53° W 16:48:49 10° NNW
NOSS 2-2 (C) 4.4 16:44:08 10° NW 16:49:15 83° NE 16:56:32 10° SE
Cosmos 1092 Rocket 4.0 16:46:26 10° N 16:52:49 70° E 16:59:05 10° SSE
Cosmos 1898 Rocket 4.1 16:47:47 10° NNW 16:52:59 65° WSW 16:58:06 10° S
CZ-4B R/B 4.2 16:50:17 10° ESE 16:54:21 23° ENE 16:58:24 10° N
CZ-2D R/B 4.4 16:53:21 10° ESE 16:56:21 22° ENE 16:59:21 10° NNE
ATLAS CENTAUR R/B 3.1 16:46:09 10° SW 16:57:06 88° SE 17:01:25 10° NE
USA 267 3.7 16:51:10 10° ENE 16:57:29 50° SE 17:03:47 10° SSW
Cosmos 1939 Rocket 3.1 16:54:56 10° SSE 16:58:53 49° ENE 17:02:48 10° N
USA 306 3.6 16:55:43 10° WNW 16:59:44 38° NNE 17:03:43 10° E
Cosmos 1151 Rocket 3.9 16:57:33 10° SSE 17:01:18 29° E 17:05:05 10° NNE
Cosmos 1633 Rocket 3.8 16:57:31 10° N 17:01:25 30° ENE 17:05:18 10° SE
COSMO-SKYMED 1 4.3 16:59:36 10° ENE 17:01:50 14° E 17:04:03 10° ESE
Cosmos 1666 3.4 16:59:53 10° N 17:03:13 30° ENE 17:06:31 10° SE
Cosmos 1782 2.9 16:59:24 10° S 17:03:17 54° E 17:07:11 10° NNE
Cosmos 2360 Rocket 3.6 17:00:45 10° N 17:04:28 18° NE 17:08:12 10° E
ISS -2.3 17:02:11 10° WNW 17:05:24 41° SSW 17:08:37 10° SE
Cosmos 1763 Rocket 4.2 17:03:00 10° SW 17:07:57 52° WNW 17:13:00 10° NNE
SeaSat 1 3.9 17:04:46 10° NNE 17:09:08 32° NW 17:13:29 10° WSW
SL-08 R/B 3.5 17:04:58 10° N 17:09:41 75° WNW 17:14:16 10° SSW
Cosmos 1818 3.7 17:05:18 10° NNW 17:10:42 55° NE 17:16:03 10° SE
NOAA 12 4.2 17:06:10 10° SSE 17:11:29 86° WSW 17:16:50 10° NNW
CZ-2C R/B 3.9 17:13:00 10° SSW 17:14:48 12° SSE 17:16:34 10° SE
Meteor 2-14 Rocket 4.4 17:09:33 10° N 17:15:41 80° E 17:21:45 10° SSE
ATLAS 5 CENTAUR R/B 3.2 17:08:43 10° NW 17:17:02 37° NNE 17:19:38 15° E
Cosmos 1627 Rocket 4.5 17:11:04 10° N 17:17:16 89° E 17:23:23 10° S
Cosmos 2279 Rocket 4.2 17:11:26 10° SSE 17:17:19 47° E 17:23:13 10° NNE
Cosmos 841 Rocket 3.5 17:12:59 10° SSW 17:18:09 89° ESE 17:23:20 10° NNE
Meteor PRIRODA 4.3 17:15:05 10° S 17:18:39 59° WSW 17:22:15 10° NNW
ERBS 4.3 17:17:17 10° NW 17:19:19 15° N 17:20:46 12° NNE
USA 307 3.4 17:16:19 10° WNW 17:20:23 42° NNE 17:23:32 15° E
CZ-4C R/B 3.0 17:14:28 10° NW 17:21:40 89° NE 17:30:09 10° SE
Lacrosse 5 rocket 1.2 17:19:55 10° NW 17:23:49 71° NE 17:27:55 10° ESE
Cosmos 1697 Rocket 4.3 17:19:40 10° NW 17:24:50 38° WSW 17:29:57 10° S
Cosmos 372 Rocket 4.3 17:19:46 10° NNW 17:25:00 73° WSW 17:30:14 10° SSE
ATLAS 2AS CENTAUR R/B 4.2 17:20:49 10° NW 17:26:38 23° N 17:31:18 13° NE
Cosmos 2208 Rocket 4.4 17:22:28 10° S 17:27:39 49° ESE 17:32:51 10° NNE
Cosmos 2322 Rocket 2.9 17:22:41 10° NNW 17:27:49 33° NE 17:32:55 10° ESE
Cosmos 2150 Rocket 4.3 17:25:00 10° N 17:29:56 42° ENE 17:34:54 10° SE
AQUARIUS 4.1 17:25:42 10° SSE 17:30:11 81° ENE 17:34:43 10° NNW
Cosmos 1666 Rocket 3.5 17:26:39 10° N 17:31:06 71° E 17:35:28 10° SSE
Cosmos 1980 Rocket 2.7 17:25:38 10° NNW 17:31:15 64° WSW 17:36:47 10° SSE
Cosmos 1328 Rocket 3.9 17:27:06 10° SSE 17:31:17 42° E 17:35:29 10° NNE
USA 234 3.2 17:25:14 10° ESE 17:31:45 74° NNE 17:38:17 10° NW
Cosmos 1470 Rocket 4.0 17:30:27 10° N 17:34:39 39° ENE 17:38:51 10° SE
Cosmos 1544 4.0 17:31:37 10° NNE 17:34:44 26° ENE 17:37:50 10° SE
CORIOLIS 4.2 17:30:17 10° SSE 17:35:42 89° WSW 17:41:11 10° NNW
Cosmos 1125 Rocket 3.8 17:31:08 10° NNW 17:36:10 44° ENE 17:41:13 10° SE
X-37B 2.5 17:34:48 10° SSW 17:36:46 17° SSE 17:37:49 14° SE
Cosmos 1812 2.6 17:33:14 10° S 17:37:04 78° E 17:40:56 10° NNE
Cosmos 2026 Rocket 4.3 17:31:29 10° NNW 17:37:34 69° W 17:43:33 10° S
PSLV R/B 3.6 17:34:36 10° SSE 17:38:17 69° ENE 17:42:03 10° N
H-2A R/B 2.0 17:34:03 10° SSE 17:39:05 61° ENE 17:44:01 10° N
Cosmos 1634 Rocket 4.2 17:33:22 10° SSW 17:39:42 80° W 17:46:04 10° N
Okean O Rocket 2.2 17:36:55 10° SE 17:40:57 35° ENE 17:45:01 10° N
Meteor 1-11 Rocket 4.1 17:36:24 10° N 17:41:42 39° ENE 17:47:03 10° SE
USA 308 3.2 17:39:02 10° WNW 17:43:10 49° NNE 17:45:21 25° E
Meteor 2-21 Rocket 4.5 17:38:12 10° N 17:44:19 84° W 17:50:22 10° S
Sich 1 4.3 17:42:22 10° NNW 17:46:28 44° W 17:50:34 10° SSW
SL-16 R/B 2.3 17:43:03 10° NNW 17:48:39 55° ENE 17:54:12 10° SE
SKYMED 2 4.0 17:47:47 20° NE 17:50:19 39° E 17:54:24 10° SSE
ARGOS 3.3 17:45:49 10° SE 17:51:00 50° ENE 17:56:13 10° N
Cosmos 2082 Rocket 2.6 17:45:43 10° SW 17:51:20 63° WNW 17:56:56 10° NNE
Meteor 1-5 Rocket 4.4 17:47:48 10° NNW 17:53:49 83° W 17:59:40 10° S
SMAP 4.0 17:49:58 10° S 17:54:29 51° W 17:59:03 10° NNW
deb Chang Zheng 4 3.6 17:52:15 10° SSE 17:56:27 55° ENE 18:00:41 10° N
COSMOS 2455 3.6 17:53:49 10° SW 17:59:40 51° NW 18:04:53 13° NNE
Cosmos 1833 Rocket 4.4 18:00:14 10° WSW 18:05:01 28° NW 18:09:51 10° N
USA 305 2.8 18:03:21 10° WNW 18:07:35 68° NNE 18:08:52 42° E
Cosmos 2333 Rocket 3.3 18:03:29 10° N 18:08:05 25° NE 18:08:05 25° NE
Cosmos 1356 Rocket 3.4 18:05:12 10° N 18:09:23 59° ENE 18:13:35 10° SSE
CZ-2C R/B 2.5 18:06:50 13° NNE 18:11:32 67° ESE 18:16:40 10° S
Cosmos 2219 Rocket 3.5 18:11:32 10° N 18:15:05 22° NNE 18:15:05 22° NNE
Cosmos 44 Rocket 4.1 18:11:58 10° NW 18:16:43 50° WSW 18:21:18 10° SSE
Cosmos 1655 Rocket 3.9 18:10:54 10° N 18:17:21 82° E 18:23:42 10° S
Aureole 3 Rocket 3.8 18:13:15 10° SSE 18:17:43 49° E 18:23:57 10° NNE
Cosmos 1515 Rocket 3.4 18:13:57 10° S 18:18:22 72° E 18:20:27 31° NNE
Cosmos 921 Rocket 3.0 18:16:36 10° SSW 18:20:48 78° WNW 18:22:47 31° NNE
CZ-4 R/B 4.3 18:21:35 10° SSE 18:25:42 89° W 18:29:52 10° NNW
Cosmos 546 4.5 18:25:20 10° WSW 18:29:10 87° NNW 18:29:10 87° NNW
CZ-4B R/B 3.6 18:29:09 10° S 18:34:29 63° WSW 18:39:47 10° NNW
Cosmos 371 Rocket 4.2 18:30:50 10° NNW 18:33:50 33° NNE 18:33:50 33° NNE
COSMO-SKYMED 1 2.8 18:36:23 30° N 18:38:28 68° WNW 18:42:46 10° SSW
USA 306 2.8 18:35:39 10° WNW 18:39:52 83° SW 18:39:52 83° SW
USA 267 3.4 18:37:47 35° NE 18:40:39 66° NNW 18:47:07 10° WSW
Landsat 5 3.5 18:41:36 68° SSW 18:41:36 68° SSW 18:45:02 10° SSW
Meteor 2-15 Rocket 4.4 18:36:54 10° SSW 18:43:01 82° W 18:49:11 10° N
APEX 3.9 18:40:06 10° SW 18:43:02 44° W 18:43:02 44° W
Meteor 1-27 Rocket 3.5 18:38:47 10° S 18:44:18 82° E 18:46:30 38° NNE
YAOGAN 1 4.4 18:48:30 20° N 18:48:30 20° N 18:49:54 10° N
Cosmos 836 Rocket 4.4 18:41:48 10° SSW 18:47:06 88° WNW 18:48:20 55° NNE
Cosmos 2360 Rocket 2.0 18:43:49 10° NNW 18:49:31 74° ENE 18:50:08 67° ESE
Cosmos 2237 4.2 18:47:15 10° NNW 18:52:59 80° WSW 18:55:53 30° SSE
CZ-2C R/B 3.7 18:51:05 10° SW 18:53:23 14° S 18:53:23 14° S
USA 307 3.6 18:56:15 10° WNW 18:59:35 51° W 18:59:35 51° W
SL-08 RB Rocket 4.4 18:57:53 10° S 19:02:24 54° W 19:06:55 10° NNW
Lacrosse 5 rocket 3.7 18:59:33 10° WNW 19:02:35 21° SW 19:04:38 15° SSW
Cosmos 2322 Rocket 3.0 19:06:35 10° NW 19:12:05 50° WSW 19:17:08 12° S
COSMOS 2428 4.3 19:08:21 10° NNW 19:10:45 24° N 19:10:45 24° N
USA 234 4.3 19:10:00 15° SSE 19:15:03 42° SW 19:21:12 10° WNW
NOSS 3-4 (A) 3.9 19:10:15 10° NW 19:16:20 56° NNE 19:16:20 56° NNE
NOSS 3-4 (C) 4.0 19:10:21 10° NW 19:16:24 56° NNE 19:16:24 56° NNE
Okean O Rocket 3.6 19:13:32 10° SSW 19:17:20 27° W 19:21:11 10° NW
Cosmos 1867 3.9 19:14:14 10° SW 19:19:09 65° W 19:19:09 65° W
ATLAS 2AS CENTAUR R/B 3.7 19:13:10 10° NW 19:18:44 33° N 19:18:44 33° N
GEOS 3 Rocket 4.4 19:23:02 44° NNW 19:23:02 44° NNW 19:26:34 10° NW
NOSS 3-3 (A) 4.1 19:21:04 10° SW 19:25:51 65° SW 19:25:51 65° SW
NOSS 3-3 (C) 4.1 19:21:10 10° SW 19:25:55 65° SW 19:25:55 65° SW
ATLAS CENTAUR R/B 4.3 19:24:02 10° WNW 19:27:07 19° NW 19:27:07 19° NW
SL-16 R/B 4.2 19:27:46 10° NW 19:32:23 26° WSW 19:37:01 10° SSW
Cosmos 2333 Rocket 3.7 19:47:20 10° NNW 19:50:07 30° NW 19:50:07 30° NW
Cosmos 2219 Rocket 4.1 19:54:56 10° NNW 19:56:50 22° NNW 19:56:50 22° NNW
